KB9ZI Weather Reports


time (UTC)temp
C
wind
direction
speed
KPH
gust
KPH
rain 1hr
cm
rain 24hr
cm
rain mn
cm
humidity
%
barometer
mb
20260507203252 13 235 0.0 11.3 0.00 0.00 0.00 32 1010.4
20260507203131 13 235 0.0 14.5 0.00 0.00 0.00 32 1010.3
20260507203051 13 235 0.0 14.5 0.00 0.00 0.00 32 1010.3
20260507202833 13 250 0.0 14.5 0.00 0.00 0.00 35 1010.4
20260507202631 14 262 0.0 14.5 0.00 0.00 0.00 36 1010.4
20260507202433 13 262 0.0 14.5 0.00 0.00 0.00 36 1010.4
20260507202216 13 252 0.0 14.5 0.00 0.00 0.00 34 1010.4
20260507202122 13 223 0.0 11.3 0.00 0.00 0.00 37 1010.4
20260507202114 13 233 0.0 11.3 0.00 0.00 0.00 40 1010.5
20260507201815 13 251 0.0 11.3 0.00 0.00 0.00 36 1010.4
20260507201621 13 320 0.0 11.3 0.00 0.00 0.00 36 1010.4
20260507201615 13 333 0.0 8.0 0.00 0.00 0.00 36 1010.4
20260507201416 13 223 0.0 8.0 0.00 0.00 0.00 40 1010.5
20260507201213 12 73 0.0 8.0 0.00 0.00 0.00 42 1010.5
20260507201120 12 73 0.0 8.0 0.00 0.00 0.00 39 1010.4
20260507201014 12 45 0.0 8.0 0.00 0.00 0.00 37 1010.5
20260507200813 13 42 0.0 8.0 0.00 0.00 0.00 51 1010.5
20260507200617 13 65 0.0 8.0 0.00 0.00 0.00 47 1010.5
20260507200612 13 75 0.0 8.0 0.00 0.00 0.00 47 1010.5
20260507200513 13 124 0.0 8.0 0.00 0.00 0.00 41 1010.5
20260507200212 13 128 0.0 8.0 0.00 0.00 0.00 39 1010.6
20260507200114 13 151 0.0 8.0 0.00 0.00 0.00 41 1010.7
20260507200009 13 151 0.0 8.0 0.00 0.00 0.00 42 1010.7
20260507195804 13 44 0.0 8.0 0.00 0.00 0.00 41 1010.6
20260507195618 13 38 0.0 8.0 0.00 0.00 0.00 40 1010.6
20260507195605 13 292 0.0 8.0 0.00 0.00 0.00 40 1010.6
20260507195351 13 234 0.0 6.4 0.00 0.00 0.00 37 1010.6
20260507195152 13 90 0.0 6.4 0.00 0.00 0.00 37 1010.7
20260507195106 13 4 0.0 6.4 0.00 0.00 0.00 37 1010.7
20260507194952 13 41 0.0 8.0 0.00 0.00 0.00 41 1010.7
20260507194908 13 334 0.0 14.5 0.00 0.00 0.00 40 1010.7
20260507194842 13 264 0.0 14.5 0.00 0.00 0.00 33 1010.7
20260507194547 13 25 0.0 14.5 0.00 0.00 0.00 36 1010.8
20260507194349 13 25 0.0 14.5 0.00 0.00 0.00 35 1010.8
20260507194258 13 296 0.0 14.5 0.00 0.00 0.00 39 1010.8
20260507194106 13 204 0.0 14.5 0.00 0.00 0.00 39 1010.8
20260507193947 13 193 0.0 14.5 0.00 0.00 0.00 36 1010.7
20260507193747 13 251 0.0 9.7 0.00 0.00 0.00 34 1010.9
20260507193604 13 264 0.0 9.7 0.00 0.00 0.00 39 1010.8
20260507193544 13 268 0.0 9.7 0.00 0.00 0.00 41 1010.8
20260507193342 12 44 0.0 11.3 0.00 0.00 0.00 46 1010.8
20260507193145 12 39 0.0 11.3 0.00 0.00 0.00 35 1010.9
20260507193105 12 39 0.0 11.3 0.00 0.00 0.00 35 1010.9
20260507192939 12 49 0.0 11.3 0.00 0.00 0.00 38 1011.0
20260507192738 12 240 0.0 14.5 0.00 0.00 0.00 41 1010.9
20260507192640 13 219 0.0 14.5 0.00 0.00 0.00 38 1010.9
20260507192605 13 237 0.0 14.5 0.00 0.00 0.00 38 1010.9
20260507192337 13 234 0.0 14.5 0.00 0.00 0.00 38 1010.9
20260507192134 13 252 0.0 14.5 0.00 0.00 0.00 32 1011.0
20260507192103 13 248 0.0 14.5 0.00 0.00 0.00 33 1011.0
20260507191936 13 244 0.0 11.3 0.00 0.00 0.00 35 1011.0
20260507191735 13 333 0.0 11.3 0.00 0.00 0.00 37 1010.9
20260507191605 13 31 0.0 11.3 0.00 0.00 0.00 36 1011.0
20260507191535 13 27 0.0 11.3 0.00 0.00 0.00 36 1011.0
20260507191333 13 130 0.0 11.3 0.00 0.00 0.00 34 1011.0
20260507191134 12 292 0.0 11.3 0.00 0.00 0.00 37 1011.0
20260507191101 12 292 0.0 11.3 0.00 0.00 0.00 36 1011.0
20260507191036 12 189 0.0 11.3 0.00 0.00 0.00 35 1010.9
20260507190731 12 248 0.0 11.3 0.00 0.00 0.00 33 1010.9
20260507190602 12 254 0.0 19.3 0.00 0.00 0.00 35 1011.0
20260507190534 12 254 0.0 19.3 0.00 0.00 0.00 35 1011.0
20260507190400 12 207 0.0 19.3 0.00 0.00 0.00 31 1011.0
20260507190347 12 199 0.0 19.3 0.00 0.00 0.00 34 1011.1
20260507190312 12 206 0.0 19.3 0.00 0.00 0.00 31 1011.0
20260507185910 13 213 0.0 19.3 0.00 0.00 0.00 37 1011.1
20260507185709 13 235 0.0 19.3 0.00 0.00 0.00 35 1011.1
20260507185556 13 245 0.0 11.3 0.00 0.00 0.00 34 1011.1
20260507185508 13 258 0.0 11.3 0.00 0.00 0.00 35 1011.0
20260507185447 12 16 0.0 9.7 0.00 0.00 0.00 35 1011.0
20260507185405 12 241 0.0 9.7 0.00 0.00 0.00 37 1011.1
20260507185317 12 230 0.0 9.7 0.00 0.00 0.00 37 1011.1
20260507184907 12 245 0.0 14.5 0.00 0.00 0.00 35 1011.1
20260507184710 13 250 0.0 14.5 0.00 0.00 0.00 35 1011.1
20260507184555 13 264 0.0 14.5 0.00 0.00 0.00 37 1011.1
20260507184506 13 224 0.0 14.5 0.00 0.00 0.00 36 1011.1
20260507184359 13 45 0.0 14.5 0.00 0.00 0.00 38 1011.2
20260507184347 13 320 0.0 14.5 0.00 0.00 0.00 36 1011.1
20260507184314 13 37 0.0 14.5 0.00 0.00 0.00 38 1011.2
20260507183907 13 18 0.0 14.5 0.00 0.00 0.00 36 1011.1
20260507183705 13 32 0.0 14.5 0.00 0.00 0.00 35 1011.1
20260507183553 13 32 0.0 14.5 0.00 0.00 0.00 35 1011.2
20260507183505 13 20 0.0 9.7 0.00 0.00 0.00 32 1011.1
20260507183439 13 11 0.0 9.7 0.00 0.00 0.00 35 1011.2
20260507183349 13 35 0.0 9.7 0.00 0.00 0.00 37 1011.2
20260507183308 13 35 0.0 9.7 0.00 0.00 0.00 37 1011.2
20260507182906 13 243 0.0 9.7 0.00 0.00 0.00 37 1011.2
20260507182702 13 231 0.0 16.1 0.00 0.00 0.00 37 1011.2
20260507182549 13 278 0.0 16.1 0.00 0.00 0.00 38 1011.2
20260507182504 13 250 0.0 16.1 0.00 0.00 0.00 38 1011.2
20260507182354 12 155 0.0 16.1 0.00 0.00 0.00 34 1011.2
20260507182339 13 52 0.0 16.1 0.00 0.00 0.00 35 1011.4
20260507182307 12 157 0.0 16.1 0.00 0.00 0.00 34 1011.2
20260507181901 12 221 0.0 16.1 0.00 0.00 0.00 33 1011.1
20260507181800 13 264 0.0 8.0 0.00 0.00 0.00 39 1011.2
20260507181551 13 245 0.0 9.7 0.00 0.00 0.00 38 1011.2
20260507181459 13 4 0.0 9.7 0.00 0.00 0.00 34 1011.2
20260507181402 13 51 0.0 9.7 0.00 0.00 0.00 36 1011.4
20260507181345 13 0 0.0 9.7 0.00 0.00 0.00 37 1011.4
20260507181310 13 51 0.0 9.7 0.00 0.00 0.00 36 1011.4
20260507180900 13 20 0.0 9.7 0.00 0.00 0.00 37 1011.4
20260507180702 12 23 0.0 9.7 0.00 0.00 0.00 37 1011.4
20260507180549 12 257 0.0 9.7 0.00 0.00 0.00 36 1011.2
20260507180456 12 51 0.0 9.7 0.00 0.00 0.00 34 1011.5
20260507180356 13 303 0.0 9.7 0.00 0.00 0.00 36 1011.4
20260507180340 13 17 0.0 9.7 0.00 0.00 0.00 34 1011.5
20260507175851 13 52 0.0 9.7 0.00 0.00 0.00 34 1011.5
20260507175656 13 231 0.0 9.7 0.00 0.00 0.00 35 1011.4
20260507175553 13 235 0.0 9.7 0.00 0.00 0.00 36 1011.4
20260507175454 13 245 0.0 9.7 0.00 0.00 0.00 37 1011.5
20260507175359 12 341 0.0 9.7 0.00 0.00 0.00 36 1011.4
20260507175342 13 8 0.0 9.7 0.00 0.00 0.00 37 1011.4
20260507175307 12 341 0.0 9.7 0.00 0.00 0.00 36 1011.4
20260507174853 12 182 0.0 9.7 0.00 0.00 0.00 35 1011.4
20260507174653 12 235 0.0 9.7 0.00 0.00 0.00 37 1011.5
20260507174602 12 257 0.0 9.7 0.00 0.00 0.00 35 1011.5
20260507174552 12 234 0.0 9.7 0.00 0.00 0.00 39 1011.5
20260507174254 12 244 0.0 11.3 0.00 0.00 0.00 41 1011.5
20260507174054 11 214 0.0 11.3 0.00 0.00 0.00 35 1011.5
20260507173853 11 250 0.0 11.3 0.00 0.00 0.00 42 1011.5
20260507173654 11 226 0.0 11.3 0.00 0.00 0.00 38 1011.6
20260507173553 12 226 0.0 11.3 0.00 0.00 0.00 34 1011.6
20260507173453 12 238 0.0 14.5 0.00 0.00 0.00 37 1011.6
20260507173253 12 250 0.0 14.5 0.00 0.00 0.00 39 1011.6
20260507173054 12 347 0.0 14.5 0.00 0.00 0.00 40 1011.6
20260507172955 12 31 0.0 14.5 0.00 0.00 0.00 35 1011.6
20260507172653 12 278 0.0 14.5 0.00 0.00 0.00 34 1011.6
20260507172548 12 28 0.0 14.5 0.00 0.00 0.00 37 1011.6
20260507172453 12 31 0.0 11.3 0.00 0.00 0.00 41 1011.6
20260507172254 12 243 0.0 14.5 0.00 0.00 0.00 36 1011.8
20260507172049 12 245 0.0 14.5 0.00 0.00 0.00 37 1011.7
20260507171853 12 221 0.0 14.5 0.00 0.00 0.00 33 1011.8
20260507171654 12 192 0.0 14.5 0.00 0.00 0.00 37 1011.9
20260507171547 12 254 0.0 14.5 0.00 0.00 0.00 36 1011.8
20260507171454 12 261 0.0 14.5 0.00 0.00 0.00 35 1011.8
20260507171253 12 255 0.0 8.0 0.00 0.00 0.00 37 1011.7
20260507171157 12 120 0.0 8.0 0.00 0.00 0.00 38 1011.8
20260507171047 12 120 0.0 8.0 0.00 0.00 0.00 38 1011.8
20260507170853 12 227 0.0 11.3 0.00 0.00 0.00 39 1011.8
20260507170653 12 227 0.0 11.3 0.00 0.00 0.00 37 1011.9
20260507170544 12 66 0.0 11.3 0.00 0.00 0.00 39 1011.9
20260507170453 12 240 0.0 11.3 0.00 0.00 0.00 38 1011.9
20260507170357 11 235 0.0 11.3 0.00 0.00 0.00 35 1011.9
20260507170341 11 240 0.0 11.3 0.00 0.00 0.00 37 1011.9
20260507170307 11 235 0.0 11.3 0.00 0.00 0.00 35 1011.8
20260507165854 11 186 0.0 11.3 0.00 0.00 0.00 36 1011.9
20260507165653 11 231 0.0 8.0 0.00 0.00 0.00 39 1011.9
20260507165557 11 223 0.0 6.4 0.00 0.00 0.00 37 1012.0
20260507165544 11 264 0.0 8.0 0.00 0.00 0.00 38 1011.9
20260507165253 11 259 0.0 8.0 0.00 0.00 0.00 40 1012.0
20260507165054 11 28 0.0 9.7 0.00 0.00 0.00 42 1011.9
20260507165042 11 27 0.0 9.7 0.00 0.00 0.00 42 1011.9
20260507164853 10 199 0.0 9.7 0.00 0.00 0.00 41 1012.0
20260507164655 10 199 0.0 9.7 0.00 0.00 0.00 41 1012.0
20260507164543 10 231 0.0 14.5 0.00 0.00 0.00 40 1012.1
20260507164453 11 244 0.0 14.5 0.00 0.00 0.00 43 1012.1
20260507164253 10 247 0.0 14.5 0.00 0.00 0.00 47 1012.0
20260507164059 10 306 0.0 14.5 0.00 0.00 0.00 48 1012.1
20260507164043 10 305 0.0 14.5 0.00 0.00 0.00 40 1012.0
20260507163953 10 258 0.0 14.5 0.00 0.00 0.00 41 1012.1
20260507163653 11 227 0.0 14.5 0.00 0.00 0.00 39 1012.0
20260507163541 11 224 0.0 11.3 0.00 0.00 0.00 41 1012.1
20260507163454 11 213 0.0 9.7 0.00 0.00 0.00 44 1012.1
20260507163254 11 202 0.0 9.7 0.00 0.00 0.00 42 1012.1
20260507163041 11 247 0.0 9.7 0.00 0.00 0.00 42 1012.1
20260507162853 11 230 0.0 9.7 0.00 0.00 0.00 40 1012.2
20260507162752 11 262 0.0 9.7 0.00 0.00 0.00 43 1012.2
20260507162539 11 276 0.0 9.7 0.00 0.00 0.00 44 1012.2
20260507162454 11 0 0.0 8.0 0.00 0.00 0.00 43 1012.2
20260507162344 11 62 0.0 6.4 0.00 0.00 0.00 44 1012.2
20260507162331 11 257 0.0 8.0 0.00 0.00 0.00 39 1012.2
20260507162300 11 63 0.0 6.4 0.00 0.00 0.00 44 1012.2
20260507161853 11 66 0.0 6.4 0.00 0.00 0.00 40 1012.1
20260507161653 11 59 0.0 6.4 0.00 0.00 0.00 41 1012.1
20260507161540 11 0 0.0 9.7 0.00 0.00 0.00 41 1012.2
20260507161454 11 0 0.0 9.7 0.00 0.00 0.00 41 1012.2
20260507161253 11 54 0.0 9.7 0.00 0.00 0.00 40 1012.2
20260507161154 11 28 0.0 9.7 0.00 0.00 0.00 44 1012.3
20260507161037 11 28 0.0 9.7 0.00 0.00 0.00 44 1012.3
20260507160853 11 37 0.0 9.7 0.00 0.00 0.00 44 1012.2
20260507160653 10 54 0.0 9.7 0.00 0.00 0.00 42 1012.2
20260507160534 10 100 0.0 8.0 0.00 0.00 0.00 40 1012.3
20260507160453 10 164 0.0 8.0 0.00 0.00 0.00 43 1012.3
20260507160253 10 234 0.0 8.0 0.00 0.00 0.00 39 1012.3
20260507160054 11 228 0.0 8.0 0.00 0.00 0.00 40 1012.3
20260507160031 11 350 0.0 6.4 0.00 0.00 0.00 40 1012.3
20260507155855 11 42 0.0 6.4 0.00 0.00 0.00 40 1012.4
20260507155654 10 235 0.0 8.0 0.00 0.00 0.00 42 1012.3
20260507155529 10 235 0.0 8.0 0.00 0.00 0.00 43 1012.4
20260507155454 10 235 0.0 8.0 0.00 0.00 0.00 43 1012.3
20260507155253 10 230 0.0 8.0 0.00 0.00 0.00 47 1012.2
20260507155055 10 243 0.0 8.0 0.00 0.00 0.00 44 1012.2
20260507155029 10 243 0.0 8.0 0.00 0.00 0.00 44 1012.3
20260507154853 9 243 0.0 8.0 0.00 0.00 0.00 40 1012.3
20260507154655 10 243 0.0 8.0 0.00 0.00 0.00 42 1012.3
20260507154529 10 240 0.0 8.0 0.00 0.00 0.00 42 1012.4
20260507154455 10 261 0.0 8.0 0.00 0.00 0.00 40 1012.4
20260507154352 10 261 0.0 6.4 0.00 0.00 0.00 42 1012.3
20260507154057 10 265 0.0 6.4 0.00 0.00 0.00 45 1012.3
20260507154030 10 235 0.0 6.4 0.00 0.00 0.00 45 1012.2
20260507153853 10 237 0.0 6.4 0.00 0.00 0.00 44 1012.2
20260507153653 10 233 0.0 6.4 0.00 0.00 0.00 42 1012.3
20260507153529 10 30 0.0 9.7 0.00 0.00 0.00 42 1012.4
20260507153451 10 30 0.0 9.7 0.00 0.00 0.00 44 1012.4
20260507153250 10 159 0.0 9.7 0.00 0.00 0.00 45 1012.4
20260507153051 10 159 0.0 9.7 0.00 0.00 0.00 43 1012.3
20260507153030 10 159 0.0 9.7 0.00 0.00 0.00 42 1012.4
20260507152850 9 159 0.0 9.7 0.00 0.00 0.00 41 1012.4
20260507152752 10 21 0.0 9.7 0.00 0.00 0.00 45 1012.4
20260507152526 10 226 0.0 9.7 0.00 0.00 0.00 45 1012.4
20260507152450 10 226 0.0 9.7 0.00 0.00 0.00 45 1012.4
20260507152250 10 237 0.0 9.7 0.00 0.00 0.00 43 1012.4
20260507152024 9 235 0.0 9.7 0.00 0.00 0.00 44 1012.5
20260507151852 9 234 0.0 9.7 0.00 0.00 0.00 43 1012.5
20260507151649 8 223 0.0 9.7 0.00 0.00 0.00 43 1012.4
20260507151522 9 223 0.0 9.7 0.00 0.00 0.00 44 1012.4
20260507151450 9 223 0.0 9.7 0.00 0.00 0.00 43 1012.4
20260507151249 9 250 0.0 6.4 0.00 0.00 0.00 45 1012.5
20260507151021 8 250 0.0 6.4 0.00 0.00 0.00 43 1012.4
20260507150848 8 248 0.0 6.4 0.00 0.00 0.00 45 1012.5
20260507150646 8 203 0.0 6.4 0.00 0.00 0.00 47 1012.4
20260507150544 8 204 0.0 6.4 0.00 0.00 0.00 50 1012.4
20260507150520 8 203 0.0 6.4 0.00 0.00 0.00 48 1012.4
20260507150330 8 193 0.0 6.4 0.00 0.00 0.00 49 1012.5
20260507150315 8 204 0.0 6.4 0.00 0.00 0.00 49 1012.3
20260507150245 8 193 0.0 6.4 0.00 0.00 0.00 49 1012.5
20260507145842 8 193 0.0 6.4 0.00 0.00 0.00 47 1012.4
20260507145641 8 193 0.0 8.0 0.00 0.00 0.00 49 1012.5
20260507145508 8 193 0.0 8.0 0.00 0.00 0.00 49 1012.5
20260507145443 8 193 0.0 8.0 0.00 0.00 0.00 49 1012.5
20260507145238 8 193 0.0 8.0 0.00 0.00 0.00 50 1012.4
20260507145038 8 193 0.0 8.0 0.00 0.00 0.00 50 1012.4
20260507145003 8 243 0.0 8.0 0.00 0.00 0.00 49 1012.4
20260507144937 8 243 0.0 8.0 0.00 0.00 0.00 48 1012.5
20260507144637 8 247 0.0 6.4 0.00 0.00 0.00 50 1012.5
20260507144504 8 266 0.0 6.4 0.00 0.00 0.00 50 1012.5
20260507144437 8 266 0.0 6.4 0.00 0.00 0.00 50 1012.6
20260507144236 9 317 0.0 4.8 0.00 0.00 0.00 48 1012.5
20260507144035 9 317 0.0 4.8 0.00 0.00 0.00 48 1012.6
20260507144002 9 317 0.0 4.8 0.00 0.00 0.00 49 1012.6
20260507143833 9 38 0.0 3.2 0.00 0.00 0.00 51 1012.4
20260507143633 9 38 0.0 6.4 0.00 0.00 0.00 53 1012.6
20260507143503 8 38 0.0 6.4 0.00 0.00 0.00 48 1012.4
20260507143431 8 38 0.0 6.4 0.00 0.00 0.00 48 1012.5
20260507143236 8 38 0.0 6.4 0.00 0.00 0.00 50 1012.5
20260507143035 8 38 0.0 6.4 0.00 0.00 0.00 51 1012.6
20260507143004 8 38 0.0 6.4 0.00 0.00 0.00 50 1012.6
20260507142935 8 38 0.0 6.4 0.00 0.00 0.00 49 1012.6
20260507142636 8 238 0.0 4.8 0.00 0.00 0.00 52 1012.6
20260507142501 8 238 0.0 4.8 0.00 0.00 0.00 52 1012.6
20260507142412 8 238 0.0 4.8 0.00 0.00 0.00 51 1012.6
20260507142210 8 238 0.0 4.8 0.00 0.00 0.00 51 1012.7
20260507142002 7 238 0.0 4.8 0.00 0.00 0.00 50 1012.7
20260507141807 7 238 0.0 4.8 0.00 0.00 0.00 50 1012.7
20260507141607 8 233 0.0 4.8 0.00 0.00 0.00 51 1012.7
20260507141459 8 233 0.0 4.8 0.00 0.00 0.00 51 1012.7
20260507141411 8 233 0.0 4.8 0.00 0.00 0.00 52 1012.7
20260507141310 8 233 0.0 8.0 0.00 0.00 0.00 52 1012.7
20260507141021 8 233 0.0 8.0 0.00 0.00 0.00 53 1012.7
20260507140959 7 233 0.0 8.0 0.00 0.00 0.00 53 1012.7
20260507140807 7 233 0.0 8.0 0.00 0.00 0.00 54 1012.7
20260507140606 7 233 0.0 8.0 0.00 0.00 0.00 54 1012.6
20260507140455 7 233 0.0 8.0 0.00 0.00 0.00 52 1012.7
20260507140406 7 233 0.0 8.0 0.00 0.00 0.00 52 1012.7
20260507140204 7 241 0.0 6.4 0.00 0.00 0.00 54 1012.7
20260507140011 7 241 0.0 6.4 0.00 0.00 0.00 53 1012.7
20260507135956 7 241 0.0 6.4 0.00 0.00 0.00 53 1012.7
20260507135803 7 233 0.0 6.4 0.00 0.00 0.00 54 1012.7
20260507135706 7 233 0.0 6.4 0.00 0.00 0.00 57 1012.8
20260507135455 7 231 0.0 6.4 0.00 0.00 0.00 57 1012.8
20260507135359 7 233 0.0 6.4 0.00 0.00 0.00 59 1012.7
20260507135157 7 233 0.0 6.4 0.00 0.00 0.00 60 1012.7
20260507135003 7 228 0.0 4.8 0.00 0.00 0.00 60 1012.7
20260507134953 7 228 0.0 4.8 0.00 0.00 0.00 61 1012.7
20260507134854 7 228 0.0 3.2 0.00 0.00 0.00 63 1012.7
20260507134557 7 228 0.0 3.2 0.00 0.00 0.00 63 1012.7
20260507134452 7 228 0.0 3.2 0.00 0.00 0.00 63 1012.8
20260507134356 7 228 0.0 3.2 0.00 0.00 0.00 66 1012.8
20260507134300 6 228 0.0 3.2 0.00 0.00 0.00 68 1012.6
20260507134244 6 228 0.0 3.2 0.00 0.00 0.00 67 1012.8
20260507134214 6 228 0.0 3.2 0.00 0.00 0.00 68 1012.6
20260507133754 6 228 0.0 4.8 0.00 0.00 0.00 69 1012.8
20260507133553 6 228 0.0 4.8 0.00 0.00 0.00 68 1012.7
20260507133455 6 228 0.0 4.8 0.00 0.00 0.00 68 1012.8
20260507133354 6 228 0.0 4.8 0.00 0.00 0.00 68 1012.7
20260507133253 6 228 0.0 4.8 0.00 0.00 0.00 69 1012.8
20260507132952 6 228 0.0 4.8 0.00 0.00 0.00 70 1012.7
20260507132753 5 228 0.0 3.2 0.00 0.00 0.00 72 1012.8
20260507132551 5 228 0.0 3.2 0.00 0.00 0.00 73 1012.8
20260507132452 5 228 0.0 3.2 0.00 0.00 0.00 73 1012.9
20260507132346 5 228 0.0 3.2 0.00 0.00 0.00 73 1012.8
20260507132145 5 228 0.0 3.2 0.00 0.00 0.00 74 1012.8
20260507131945 5 228 0.0 3.2 0.00 0.00 0.00 76 1012.8
20260507131745 5 228 0.0 3.2 0.00 0.00 0.00 76 1012.8
20260507131644 5 228 0.0 3.2 0.00 0.00 0.00 78 1012.8
20260507131449 5 228 0.0 3.2 0.00 0.00 0.00 78 1012.8
20260507131345 5 228 0.0 3.2 0.00 0.00 0.00 79 1012.9
20260507131140 4 228 0.0 3.2 0.00 0.00 0.00 80 1012.9
20260507131041 4 228 0.0 1.6 0.00 0.00 0.00 82 1012.9
20260507130946 4 228 0.0 1.6 0.00 0.00 0.00 81 1012.9
20260507130740 4 228 0.0 1.6 0.00 0.00 0.00 83 1012.9
20260507130539 3 228 0.0 1.6 0.00 0.00 0.00 84 1012.9
20260507130447 3 228 0.0 1.6 0.00 0.00 0.00 85 1012.9
20260507130339 3 228 0.0 1.6 0.00 0.00 0.00 86 1012.8
20260507130136 3 228 0.0 1.6 0.00 0.00 0.00 87 1012.9
20260507125937 3 228 0.0 1.6 0.00 0.00 0.00 88 1012.9
20260507125735 3 228 0.0 1.6 0.00 0.00 0.00 89 1012.9
20260507125534 3 228 0.0 0.0 0.00 0.00 0.00 89 1012.9
20260507125446 2 228 0.0 0.0 0.00 0.00 0.00 90 1013.0
20260507125439 2 228 0.0 0.0 0.00 0.00 0.00 90 1012.9
20260507125134 2 228 0.0 0.0 0.00 0.00 0.00 90 1013.0
20260507124937 2 228 0.0 0.0 0.00 0.00 0.00 91 1012.9
20260507124733 2 228 0.0 0.0 0.00 0.00 0.00 91 1013.0
20260507124534 2 228 0.0 0.0 0.00 0.00 0.00 92 1013.0
20260507124446 2 228 0.0 0.0 0.00 0.00 0.00 92 1012.9
20260507124331 1 228 0.0 0.0 0.00 0.00 0.00 92 1012.9
20260507124133 1 228 0.0 0.0 0.00 0.00 0.00 92 1012.9
20260507123932 1 228 0.0 0.0 0.00 0.00 0.00 92 1013.0
20260507123833 1 228 0.0 0.0 0.00 0.00 0.00 92 1013.0
20260507123530 1 228 0.0 0.0 0.00 0.00 0.00 92 1013.0
20260507123441 1 228 0.0 0.0 0.00 0.00 0.00 92 1013.0
20260507123331 1 228 0.0 0.0 0.00 0.00 0.00 92 1013.0
20260507123133 0 228 0.0 0.0 0.00 0.00 0.00 92 1013.0
20260507122933 0 228 0.0 0.0 0.00 0.00 0.00 92 1013.0
20260507122733 0 228 0.0 0.0 0.00 0.00 0.00 92 1013.0
20260507122531 0 228 0.0 0.0 0.00 0.00 0.00 92 1013.0
20260507122438 0 228 0.0 0.0 0.00 0.00 0.00 92 1013.0
20260507122432 0 228 0.0 0.0 0.00 0.00 0.00 92 1013.0
20260507122131 0 228 0.0 0.0 0.00 0.00 0.00 92 1013.0
20260507121930 0 228 0.0 0.0 0.00 0.00 0.00 92 1013.0
20260507121731 0 228 0.0 0.0 0.00 0.00 0.00 92 1013.0
20260507121530 0 228 0.0 0.0 0.00 0.00 0.00 92 1013.1
20260507121438 0 228 0.0 0.0 0.00 0.00 0.00 92 1013.0
20260507121328 0 228 0.0 0.0 0.00 0.00 0.00 92 1013.0
20260507121129 0 228 0.0 0.0 0.00 0.00 0.00 91 1013.0
20260507120927 0 228 0.0 0.0 0.00 0.00 0.00 91 1013.1
20260507120824 0 228 0.0 0.0 0.00 0.00 0.00 91 1013.1
20260507120524 0 228 0.0 0.0 0.00 0.00 0.00 91 1013.0
20260507120434 0 228 0.0 0.0 0.00 0.00 0.00 91 1013.1
20260507120324 0 228 0.0 0.0 0.00 0.00 0.00 91 1013.1
20260507120122 -1 228 0.0 0.0 0.00 0.00 0.00 91 1013.1
20260507115922 -1 228 0.0 0.0 0.00 0.00 0.00 91 1013.1
20260507115723 -1 228 0.0 0.0 0.00 0.00 0.00 91 1013.0
20260507115521 -1 228 0.0 0.0 0.00 0.00 0.00 91 1013.1
20260507115432 -1 228 0.0 0.0 0.00 0.00 0.00 91 1013.0
20260507115321 -1 228 0.0 0.0 0.00 0.00 0.00 91 1013.0
20260507115120 -1 228 0.0 0.0 0.00 0.00 0.00 91 1013.0
20260507115018 -1 228 0.0 0.0 0.00 0.00 0.00 91 1013.0
20260507114932 -1 228 0.0 0.0 0.00 0.00 0.00 91 1013.0
20260507114717 -1 228 0.0 0.0 0.00 0.00 0.00 91 1013.0
20260507114516 -1 228 0.0 0.0 0.00 0.00 0.00 91 1012.9
20260507114429 -1 228 0.0 0.0 0.00 0.00 0.00 91 1012.9
20260507114316 -1 228 0.0 0.0 0.00 0.00 0.00 91 1013.0
20260507114116 -1 228 0.0 0.0 0.00 0.00 0.00 91 1013.0
20260507113918 -1 228 0.0 0.0 0.00 0.00 0.00 91 1012.9
20260507113715 -1 228 0.0 0.0 0.00 0.00 0.00 91 1012.9
20260507113515 -1 228 0.0 0.0 0.00 0.00 0.00 91 1013.0
20260507113429 -1 228 0.0 0.0 0.00 0.00 0.00 91 1012.9
20260507113413 -1 228 0.0 0.0 0.00 0.00 0.00 91 1013.0
20260507113113 -1 228 0.0 0.0 0.00 0.00 0.00 90 1012.9
20260507112910 -1 228 0.0 0.0 0.00 0.00 0.00 90 1012.9
20260507112712 -1 228 0.0 0.0 0.00 0.00 0.00 90 1012.9
20260507112510 -1 228 0.0 0.0 0.00 0.00 0.00 90 1013.0
20260507112429 -1 228 0.0 0.0 0.00 0.00 0.00 90 1012.9
20260507112307 -1 228 0.0 0.0 0.00 0.00 0.00 90 1012.9
20260507112106 -1 228 0.0 0.0 0.00 0.00 0.00 90 1013.0
20260507111905 -1 228 0.0 0.0 0.00 0.00 0.00 90 1012.9
20260507111808 -1 228 0.0 0.0 0.00 0.00 0.00 90 1013.0
20260507111506 -1 228 0.0 0.0 0.00 0.00 0.00 90 1013.0
20260507111429 -1 228 0.0 0.0 0.00 0.00 0.00 90 1012.9
20260507111306 -1 228 0.0 0.0 0.00 0.00 0.00 90 1012.9
20260507111208 -2 228 0.0 0.0 0.00 0.00 0.00 90 1012.9
20260507110905 -2 228 0.0 0.0 0.00 0.00 0.00 90 1012.9
20260507110705 -2 228 0.0 0.0 0.00 0.00 0.00 90 1013.0
20260507110506 -1 228 0.0 0.0 0.00 0.00 0.00 90 1012.9
20260507110427 -1 228 0.0 0.0 0.00 0.00 0.00 90 1013.0
20260507110305 -1 228 0.0 0.0 0.00 0.00 0.00 90 1013.0
20260507110107 -1 228 0.0 0.0 0.00 0.00 0.00 90 1013.0
20260507105905 -1 228 0.0 0.0 0.00 0.00 0.00 90 1012.9
20260507105752 -1 228 0.0 0.0 0.00 0.00 0.00 90 1012.9
20260507105729 -1 228 0.0 0.0 0.00 0.00 0.00 90 1012.9
20260507105720 -1 228 0.0 0.0 0.00 0.00 0.00 90 1012.9
20260507105307 -1 228 0.0 0.0 0.00 0.00 0.00 90 1013.0
20260507105105 -1 228 0.0 0.0 0.00 0.00 0.00 90 1013.0
20260507104906 -1 228 0.0 0.0 0.00 0.00 0.00 90 1012.9
20260507104725 -1 228 0.0 0.0 0.00 0.00 0.00 90 1012.9
20260507104719 -1 228 0.0 0.0 0.00 0.00 0.00 90 1012.9
20260507104649 -1 228 0.0 0.0 0.00 0.00 0.00 90 1012.9
20260507104258 -1 228 0.0 0.0 0.00 0.00 0.00 90 1012.9
20260507104056 -1 228 0.0 0.0 0.00 0.00 0.00 90 1012.9
20260507103951 -1 228 0.0 0.0 0.00 0.00 0.00 90 1013.0
20260507103924 -1 228 0.0 0.0 0.00 0.00 0.00 90 1013.0
20260507103730 -1 228 0.0 0.0 0.00 0.00 0.00 89 1012.9
20260507103721 -1 228 0.0 0.0 0.00 0.00 0.00 90 1012.9
20260507103650 -1 228 0.0 0.0 0.00 0.00 0.00 89 1012.9
20260507103254 -1 228 0.0 0.0 0.00 0.00 0.00 89 1013.0
20260507103053 -1 228 0.0 0.0 0.00 0.00 0.00 89 1013.0
20260507102924 -1 228 0.0 0.0 0.00 0.00 0.00 89 1013.0
20260507102852 -1 228 0.0 0.0 0.00 0.00 0.00 89 1013.0
20260507102719 -1 228 0.0 0.0 0.00 0.00 0.00 89 1013.0
20260507102711 -1 228 0.0 0.0 0.00 0.00 0.00 89 1012.9
20260507102251 -1 228 0.0 0.0 0.00 0.00 0.00 89 1013.0
20260507102051 -1 228 0.0 0.0 0.00 0.00 0.00 89 1013.0
20260507101907 -1 228 0.0 0.0 0.00 0.00 0.00 89 1013.0
20260507101850 -1 228 0.0 0.0 0.00 0.00 0.00 89 1013.0
20260507101708 -1 228 0.0 0.0 0.00 0.00 0.00 89 1012.9
20260507101658 -1 228 0.0 0.0 0.00 0.00 0.00 89 1013.0
20260507101628 -1 228 0.0 0.0 0.00 0.00 0.00 89 1012.9
20260507101245 -1 228 0.0 0.0 0.00 0.00 0.00 89 1013.0
20260507101053 -1 228 0.0 0.0 0.00 0.00 0.00 89 1013.0
20260507100943 -1 228 0.0 0.0 0.00 0.00 0.00 89 1013.0
20260507100906 -1 228 0.0 0.0 0.00 0.00 0.00 89 1013.0
20260507100643 -1 228 0.0 0.0 0.00 0.00 0.00 89 1013.0
20260507100443 -1 228 0.0 0.0 0.00 0.00 0.00 89 1013.0
20260507100407 -1 228 0.0 0.0 0.00 0.00 0.00 89 1013.0
20260507100241 -1 228 0.0 0.0 0.00 0.00 0.00 89 1012.9
20260507100052 -1 228 0.0 0.0 0.00 0.00 0.00 89 1013.0
20260507095907 -1 228 0.0 0.0 0.00 0.00 0.00 89 1013.0
20260507095841 -1 228 0.0 0.0 0.00 0.00 0.00 89 1013.0
20260507095642 -1 228 0.0 0.0 0.00 0.00 0.00 88 1013.0
20260507095439 -1 228 0.0 0.0 0.00 0.00 0.00 88 1012.9
20260507095405 -1 228 0.0 0.0 0.00 0.00 0.00 89 1012.9
20260507095239 -1 228 0.0 0.0 0.00 0.00 0.00 88 1012.9
20260507095041 -1 228 0.0 0.0 0.00 0.00 0.00 88 1013.0
20260507094903 -1 228 0.0 0.0 0.00 0.00 0.00 88 1013.0
20260507094833 -1 228 0.0 0.0 0.00 0.00 0.00 88 1013.0
20260507094633 -1 228 0.0 0.0 0.00 0.00 0.00 88 1012.9
20260507094433 -1 228 0.0 0.0 0.00 0.00 0.00 88 1013.0
20260507094402 -1 228 0.0 0.0 0.00 0.00 0.00 88 1013.0
20260507094231 -1 228 0.0 0.0 0.00 0.00 0.00 88 1013.1
20260507094033 -1 228 0.0 0.0 0.00 0.00 0.00 88 1013.0
20260507093903 -1 228 0.0 0.0 0.00 0.00 0.00 88 1013.0
20260507093830 -1 228 0.0 0.0 0.00 0.00 0.00 88 1013.0
20260507093800 -1 228 0.0 0.0 0.00 0.00 0.00 88 1013.0
20260507093706 -1 228 0.0 0.0 0.00 0.00 0.00 88 1013.0
20260507093629 -1 228 0.0 0.0 0.00 0.00 0.00 88 1013.0
20260507093236 -1 228 0.0 0.0 0.00 0.00 0.00 88 1013.0
20260507093041 -1 228 0.0 0.0 0.00 0.00 0.00 88 1012.9
20260507092841 -1 228 0.0 0.0 0.00 0.00 0.00 88 1012.9
20260507092703 -1 228 0.0 0.0 0.00 0.00 0.00 88 1012.9
20260507092654 -1 228 0.0 0.0 0.00 0.00 0.00 88 1013.0
20260507092400 -1 228 0.0 0.0 0.00 0.00 0.00 88 1012.9
20260507092155 -1 228 0.0 0.0 0.00 0.00 0.00 88 1013.0
20260507092057 -1 228 0.0 0.0 0.00 0.00 0.00 88 1012.9
20260507091905 -1 228 0.0 0.0 0.00 0.00 0.00 88 1013.0
20260507091758 -1 228 0.0 0.0 0.00 0.00 0.00 88 1013.0
20260507091723 -1 228 0.0 0.0 0.00 0.00 0.00 88 1013.0
20260507091700 -1 228 0.0 0.0 0.00 0.00 0.00 88 1013.0
20260507091353 -1 228 0.0 0.0 0.00 0.00 0.00 88 1013.0
20260507091153 -1 228 0.0 0.0 0.00 0.00 0.00 88 1013.0
20260507090943 -1 228 0.0 0.0 0.00 0.00 0.00 88 1013.0
20260507090902 -1 228 0.0 0.0 0.00 0.00 0.00 88 1013.0
20260507090748 -1 228 0.0 0.0 0.00 0.00 0.00 88 1013.1
20260507090709 -1 228 0.0 0.0 0.00 0.00 0.00 88 1013.1
20260507090649 -1 228 0.0 0.0 0.00 0.00 0.00 88 1013.0
20260507090342 -1 228 0.0 0.0 0.00 0.00 0.00 87 1013.0
20260507090245 -1 228 0.0 0.0 0.00 0.00 0.00 88 1013.0
20260507085939 -1 228 0.0 0.0 0.00 0.00 0.00 88 1013.0
20260507085900 -1 228 0.0 0.0 0.00 0.00 0.00 88 1013.0
20260507085745 -1 228 0.0 0.0 0.00 0.00 0.00 87 1013.1
20260507085527 -1 228 0.0 0.0 0.00 0.00 0.00 87 1013.1
20260507085355 -1 228 0.0 0.0 0.00 0.00 0.00 87 1013.1
20260507085326 -1 228 0.0 0.0 0.00 0.00 0.00 87 1013.0
20260507085120 -1 228 0.0 0.0 0.00 0.00 0.00 87 1013.0
20260507084919 0 228 0.0 0.0 0.00 0.00 0.00 87 1013.1
20260507084853 0 228 0.0 0.0 0.00 0.00 0.00 87 1013.1
20260507084741 0 228 0.0 0.0 0.00 0.00 0.00 87 1013.0
20260507084721 0 228 0.0 0.0 0.00 0.00 0.00 87 1013.1
20260507084703 0 228 0.0 0.0 0.00 0.00 0.00 87 1013.1
20260507084322 0 228 0.0 0.0 0.00 0.00 0.00 87 1013.1
20260507084124 0 228 0.0 0.0 0.00 0.00 0.00 87 1013.1
20260507083921 0 228 0.0 0.0 0.00 0.00 0.00 87 1013.1
20260507083852 0 228 0.0 0.0 0.00 0.00 0.00 87 1013.1
20260507083718 0 228 0.0 0.0 0.00 0.00 0.00 87 1013.1
20260507083655 0 228 0.0 0.0 0.00 0.00 0.00 87 1013.1
20260507083626 0 228 0.0 0.0 0.00 0.00 0.00 87 1013.1
20260507083313 0 228 0.0 0.0 0.00 0.00 0.00 87 1013.1
20260507083110 0 228 0.0 0.0 0.00 0.00 0.00 86 1013.1
20260507082909 0 228 0.0 0.0 0.00 0.00 0.00 86 1013.2
20260507082848 0 228 0.0 0.0 0.00 0.00 0.00 86 1013.1
20260507082710 0 228 0.0 0.0 0.00 0.00 0.00 86 1013.2
20260507082656 0 228 0.0 0.0 0.00 0.00 0.00 92 1013.2
20260507082629 0 228 0.0 0.0 0.00 0.00 0.00 86 1013.2
20260507082103 0 228 0.0 0.0 0.00 0.00 0.00 86 1013.1
20260507081848 0 228 0.0 0.0 0.00 0.00 0.00 86 1013.1
20260507081658 0 228 0.0 0.0 0.00 0.00 0.00 86 1013.1
20260507081504 0 228 0.0 0.0 0.00 0.00 0.00 86 1013.1
20260507081350 0 228 0.0 0.0 0.00 0.00 0.00 86 1013.1
20260507081252 0 228 0.0 0.0 0.00 0.00 0.00 86 1013.1
20260507081055 0 228 0.0 0.0 0.00 0.00 0.00 85 1013.1
20260507080856 0 228 0.0 0.0 0.00 0.00 0.00 85 1013.1
20260507080800 0 228 0.0 0.0 0.00 0.00 0.00 86 1013.0
20260507080456 0 228 0.0 0.0 0.00 0.00 0.00 85 1013.0
20260507080353 0 228 0.0 0.0 0.00 0.00 0.00 85 1013.1
20260507080254 0 228 0.0 0.0 0.00 0.00 0.00 85 1013.1
20260507080222 0 228 0.0 0.0 0.00 0.00 0.00 85 1013.1
20260507080150 0 228 0.0 0.0 0.00 0.00 0.00 85 1013.1
20260507080109 0 228 0.0 0.0 0.00 0.00 0.00 85 1013.1
20260507075653 0 228 0.0 0.0 0.00 0.00 0.00 85 1013.1
20260507075452 0 228 0.0 0.0 0.00 0.00 0.00 85 1013.1
20260507075351 0 228 0.0 0.0 0.00 0.00 0.00 85 1013.1
20260507075252 0 228 0.0 0.0 0.00 0.00 0.00 85 1013.1
20260507075236 0 228 0.0 0.0 0.00 0.00 0.00 85 1013.0
20260507075145 0 228 0.0 0.0 0.00 0.00 0.00 85 1013.1
20260507075105 0 228 0.0 0.0 0.00 0.00 0.00 85 1013.1
20260507074653 0 228 0.0 0.0 0.00 0.00 0.00 85 1013.2
20260507074453 0 228 0.0 0.0 0.00 0.00 0.00 85 1013.2
20260507074351 0 228 0.0 0.0 0.00 0.00 0.00 85 1013.2
20260507074254 0 228 0.0 0.0 0.00 0.00 0.00 85 1013.1
20260507074152 0 228 0.0 0.0 0.00 0.00 0.00 84 1013.2
20260507074137 0 228 0.0 0.0 0.00 0.00 0.00 84 1013.2
20260507074104 0 228 0.0 0.0 0.00 0.00 0.00 84 1013.2
20260507073652 0 228 0.0 0.0 0.00 0.00 0.00 84 1013.3
20260507073551 0 228 0.0 0.0 0.00 0.00 0.00 84 1013.3
20260507073351 0 228 0.0 0.0 0.00 0.00 0.00 84 1013.3
20260507073253 0 228 0.0 0.0 0.00 0.00 0.00 84 1013.3
20260507073145 0 228 0.0 0.0 0.00 0.00 0.00 84 1013.4
20260507073135 0 228 0.0 0.0 0.00 0.00 0.00 84 1013.3
20260507073104 0 228 0.0 0.0 0.00 0.00 0.00 84 1013.4
20260507072653 0 228 0.0 0.0 0.00 0.00 0.00 84 1013.4
20260507072642 0 228 0.0 0.0 0.00 0.00 0.00 84 1013.4
20260507072619 0 228 0.0 0.0 0.00 0.00 0.00 84 1013.3
20260507072254 0 228 0.0 0.0 0.00 0.00 0.00 84 1013.4
20260507072052 0 228 0.0 0.0 0.00 0.00 0.00 83 1013.4
20260507071958 0 228 0.0 0.0 0.00 0.00 0.00 83 1013.4
20260507071853 0 228 0.0 0.0 0.00 0.00 0.00 83 1013.4
20260507071658 0 228 0.0 0.0 0.00 0.00 0.00 83 1013.4
20260507071644 1 228 0.0 0.0 0.00 0.00 0.00 83 1013.4
20260507071621 1 228 0.0 0.0 0.00 0.00 0.00 83 1013.4
20260507071252 1 228 0.0 0.0 0.00 0.00 0.00 83 1013.5
20260507071052 1 228 0.0 0.0 0.00 0.00 0.00 83 1013.5
20260507070956 1 228 0.0 0.0 0.00 0.00 0.00 83 1013.5
20260507070852 1 228 0.0 0.0 0.00 0.00 0.00 83 1013.5
20260507070659 1 228 0.0 0.0 0.00 0.00 0.00 82 1013.5
20260507070653 1 228 0.0 0.0 0.00 0.00 0.00 82 1013.6
20260507070621 1 228 0.0 0.0 0.00 0.00 0.00 82 1013.6
20260507070252 1 228 0.0 0.0 0.00 0.00 0.00 82 1013.6
20260507070153 1 228 0.0 0.0 0.00 0.00 0.00 82 1013.6
20260507065852 1 228 0.0 0.0 0.00 0.00 0.00 82 1013.6
20260507065743 1 228 0.0 0.0 0.00 0.00 0.00 81 1013.8
20260507065732 1 228 0.0 0.0 0.00 0.00 0.00 82 1013.6
20260507065632 1 228 0.0 0.0 0.00 0.00 0.00 81 1013.7
20260507065252 1 228 0.0 0.0 0.00 0.00 0.00 81 1013.7
20260507065053 1 228 0.0 0.0 0.00 0.00 0.00 81 1013.7
20260507064852 1 228 0.0 0.0 0.00 0.00 0.00 81 1013.7
20260507064652 1 228 0.0 0.0 0.00 0.00 0.00 81 1013.7
20260507064550 1 228 0.0 0.0 0.00 0.00 0.00 81 1013.7
20260507064352 1 228 0.0 0.0 0.00 0.00 0.00 81 1013.7
20260507064252 1 228 0.0 0.0 0.00 0.00 0.00 81 1013.8
20260507064052 1 228 0.0 0.0 0.00 0.00 0.00 81 1013.7
20260507063853 2 228 0.0 0.0 0.00 0.00 0.00 80 1013.8
20260507063654 2 228 0.0 0.0 0.00 0.00 0.00 80 1013.8
20260507063452 2 228 0.0 0.0 0.00 0.00 0.00 80 1013.8
20260507063351 2 228 0.0 0.0 0.00 0.00 0.00 80 1013.8
20260507063251 2 228 0.0 0.0 0.00 0.00 0.00 80 1013.8
20260507063053 2 228 0.0 0.0 0.00 0.00 0.00 80 1013.8
20260507062956 2 228 0.0 0.0 0.00 0.00 0.00 80 1013.8
20260507062852 2 228 0.0 0.0 0.00 0.00 0.00 80 1013.8
20260507062653 2 228 0.0 0.0 0.00 0.00 0.00 80 1013.8
20260507062452 2 228 0.0 0.0 0.00 0.00 0.00 80 1013.9
20260507062352 2 228 0.0 0.0 0.00 0.00 0.00 80 1013.8
20260507062252 2 228 0.0 0.0 0.00 0.00 0.00 80 1013.8
20260507062053 2 228 0.0 0.0 0.00 0.00 0.00 79 1013.9
20260507061852 2 228 0.0 0.0 0.00 0.00 0.00 79 1013.9
20260507061652 2 228 0.0 0.0 0.00 0.00 0.00 79 1013.9
20260507061555 2 228 0.0 0.0 0.00 0.00 0.00 79 1013.9
20260507061351 2 228 0.0 0.0 0.00 0.00 0.00 79 1013.9
20260507061252 2 228 0.0 0.0 0.00 0.00 0.00 79 1014.0
20260507061052 3 228 0.0 0.0 0.00 0.00 0.00 79 1014.0
20260507060852 3 228 0.0 0.0 0.00 0.00 0.00 79 1014.0
20260507060653 3 228 0.0 0.0 0.00 0.00 0.00 79 1014.0
20260507060451 3 228 0.0 0.0 0.00 0.00 0.00 79 1014.0
20260507060350 3 228 0.0 0.0 0.00 0.00 0.00 79 1014.0
20260507060252 3 228 0.0 0.0 0.00 0.00 0.00 79 1014.0
20260507060052 3 228 0.0 0.0 0.00 0.00 0.00 78 1014.0
20260507055957 3 228 0.0 0.0 0.00 0.00 0.00 78 1014.0
20260507055854 3 228 0.0 0.0 0.00 0.00 0.00 78 1014.0
20260507055659 3 228 0.0 0.0 0.00 0.00 0.00 78 1014.0
20260507055653 3 228 0.0 0.0 0.00 0.00 0.00 78 1014.0
20260507055620 3 228 0.0 0.0 0.00 0.00 0.00 78 1014.0
20260507055252 3 228 0.0 0.0 0.00 0.00 0.00 78 1014.0
20260507055052 3 228 0.0 0.0 0.00 0.00 0.00 78 1014.0
20260507054851 3 228 0.0 0.0 0.00 0.00 0.00 78 1013.9
20260507054654 3 228 0.0 0.0 0.00 0.00 0.00 78 1014.0
20260507054641 3 228 0.0 0.0 0.00 0.00 0.00 78 1014.0
20260507054636 3 228 0.0 0.0 0.00 0.00 0.00 77 1014.0
20260507054618 3 228 0.0 0.0 0.00 0.00 0.00 78 1013.9
20260507054051 3 228 0.0 0.0 0.00 0.00 0.00 77 1013.9
20260507053852 3 228 0.0 0.0 0.00 0.00 0.00 77 1014.1
20260507053658 3 228 0.0 0.0 0.00 0.00 0.00 77 1014.1
20260507053653 3 228 0.0 0.0 0.00 0.00 0.00 77 1014.0
20260507053621 3 228 0.0 0.0 0.00 0.00 0.00 77 1014.0
20260507053252 3 228 0.0 0.0 0.00 0.00 0.00 77 1014.0
20260507053055 3 228 0.0 0.0 0.00 0.00 0.00 77 1014.0
20260507052854 3 228 0.0 0.0 0.00 0.00 0.00 76 1014.0
20260507052752 3 228 0.0 0.0 0.00 0.00 0.00 76 1014.1
20260507052452 3 228 0.0 0.0 0.00 0.00 0.00 76 1014.1
20260507052350 3 228 0.0 0.0 0.00 0.00 0.00 76 1014.1
20260507052254 3 228 0.0 0.0 0.00 0.00 0.00 76 1014.0
20260507052052 3 228 0.0 0.0 0.00 0.00 0.00 76 1014.1
20260507051852 3 228 0.0 0.0 0.00 0.00 0.00 76 1014.1
20260507051651 3 228 0.0 0.0 0.00 0.00 0.00 76 1014.1
20260507051452 3 228 0.0 0.0 0.00 0.00 0.00 76 1014.1
20260507051353 3 228 0.0 0.0 0.00 0.00 0.00 76 1014.2
20260507051251 3 228 0.0 0.0 0.00 0.00 0.00 76 1014.1
20260507051151 3 228 0.0 0.0 0.00 0.00 0.00 76 1014.2
20260507050853 3 228 0.0 0.0 0.00 0.00 0.00 75 1014.2
20260507050637 3 228 0.0 0.0 0.00 0.00 0.00 75 1014.1
20260507050438 3 228 0.0 0.0 0.00 0.00 0.00 75 1014.2
20260507050344 3 228 0.0 0.0 0.00 0.00 0.00 75 1014.2
20260507050335 3 228 0.0 0.0 0.00 0.00 0.00 75 1014.2
20260507050040 3 228 0.0 0.0 0.00 0.00 0.00 74 1014.2
20260507045833 3 228 0.0 0.0 0.00 0.00 0.00 74 1014.2
20260507045633 3 228 0.0 0.0 0.00 0.00 0.00 74 1014.3
20260507045432 3 228 0.0 0.0 0.00 0.00 0.00 74 1014.2
20260507045340 3 228 0.0 0.0 0.00 0.00 0.00 75 1014.1
20260507045233 3 228 0.0 0.0 0.00 0.00 0.00 75 1014.3
20260507045037 3 228 0.0 0.0 0.00 0.00 0.00 74 1014.2
20260507044833 3 228 0.0 0.0 0.00 0.00 0.00 74 1014.3
20260507044738 3 228 0.0 0.0 0.00 0.00 0.00 74 1014.2
20260507044405 3 228 0.0 0.0 0.00 0.00 0.00 74 1014.2
20260507044332 3 228 0.0 0.0 0.00 0.00 0.00 74 1014.2
20260507044203 3 228 0.0 0.0 0.00 0.00 0.00 74 1014.3
20260507044003 3 228 0.0 0.0 0.00 0.00 0.00 74 1014.3
20260507043804 3 228 0.0 0.0 0.00 0.00 0.00 74 1014.3
20260507043639 3 228 0.0 0.0 0.00 0.00 0.00 74 1014.3
20260507043630 3 228 0.0 0.0 0.00 0.00 0.00 74 1014.3
20260507043554 3 228 0.0 0.0 0.00 0.00 0.00 74 1014.3
20260507043200 3 228 0.0 0.0 0.00 0.00 0.00 74 1014.3
20260507043055 3 228 0.0 0.0 0.00 0.00 0.00 74 1014.3
20260507042830 3 228 0.0 0.0 0.00 0.00 0.00 73 1014.4
20260507042753 3 228 0.0 0.0 0.00 0.00 0.00 73 1014.4
20260507042635 3 228 0.0 0.0 0.00 0.00 0.00 73 1014.4
20260507042622 3 228 0.0 0.0 0.00 0.00 0.00 73 1014.4
20260507042550 3 228 0.0 0.0 0.00 0.00 0.00 73 1014.4
20260507042252 3 228 0.0 0.0 0.00 0.00 0.00 73 1014.4
20260507041953 3 228 0.0 0.0 0.00 0.00 0.00 72 1014.4
20260507041830 3 228 0.0 0.0 0.00 0.00 0.00 72 1014.4
20260507041752 3 228 0.0 0.0 0.00 0.00 0.00 72 1014.4
20260507041638 3 228 0.0 0.0 0.00 0.00 0.00 73 1014.6
20260507041625 3 228 0.0 0.0 0.00 0.00 0.00 72 1014.5
20260507041550 3 228 0.0 0.0 0.00 0.00 0.00 73 1014.4
20260507041151 3 228 0.0 0.0 0.00 0.00 0.00 73 1014.5
20260507040950 3 228 0.0 0.0 0.00 0.00 0.00 73 1014.5
20260507040831 3 228 0.0 0.0 0.00 0.00 0.00 73 1014.4
20260507040750 3 228 0.0 0.0 0.00 0.00 0.00 73 1014.4
20260507040718 3 228 0.0 0.0 0.00 0.00 0.00 73 1014.5
20260507040552 3 228 0.0 0.0 0.00 0.00 0.00 73 1014.5
20260507040135 3 228 0.0 0.0 0.00 0.00 0.00 73 1014.5
20260507035937 3 228 0.0 0.0 0.00 0.00 0.00 73 1014.5
20260507035805 3 228 0.0 0.0 0.00 0.00 0.00 73 1014.5
20260507035736 3 228 0.0 0.0 0.00 0.00 0.00 73 1014.5
20260507035534 3 228 0.0 0.0 0.00 0.00 0.00 73 1014.6
20260507035335 3 228 0.0 0.0 0.00 0.00 0.00 73 1014.5
20260507035306 3 228 0.0 0.0 0.00 0.00 0.00 73 1014.5
20260507035135 3 228 0.0 0.0 0.00 0.00 0.00 73 1014.5
20260507035034 3 228 0.0 0.0 0.00 0.00 0.00 74 1014.5
20260507034808 3 228 0.0 0.0 0.00 0.00 0.00 74 1014.5
20260507034732 3 228 0.0 0.0 0.00 0.00 0.00 74 1014.6
20260507034512 3 228 0.0 0.0 0.00 0.00 0.00 74 1014.6
20260507034303 3 228 0.0 0.0 0.00 0.00 0.00 74 1014.6
20260507034113 3 228 0.0 0.0 0.00 0.00 0.00 74 1014.6
20260507033911 3 228 0.0 0.0 0.00 0.00 0.00 73 1014.6
20260507033802 3 228 0.0 0.0 0.00 0.00 0.00 73 1014.6
20260507033711 3 228 0.0 0.0 0.00 0.00 0.00 73 1014.7
20260507033510 3 228 0.0 0.0 0.00 0.00 0.00 73 1014.7
20260507033309 3 228 0.0 0.0 0.00 0.00 0.00 73 1014.6
20260507033256 3 228 0.0 0.0 0.00 0.00 0.00 73 1014.6
20260507033211 3 228 0.0 0.0 0.00 0.00 0.00 73 1014.7
20260507032910 3 228 0.0 0.0 0.00 0.00 0.00 73 1014.7
20260507032757 3 228 0.0 0.0 0.00 0.00 0.00 73 1014.6
20260507032708 3 228 0.0 0.0 0.00 0.00 0.00 73 1014.6
20260507032505 3 228 0.0 0.0 0.00 0.00 0.00 73 1014.6
20260507032308 3 228 0.0 0.0 0.00 0.00 0.00 72 1014.7
20260507032258 3 228 0.0 0.0 0.00 0.00 0.00 72 1014.7
20260507032106 3 228 0.0 0.0 0.00 0.00 0.00 72 1014.7
20260507031904 3 228 0.0 1.6 0.00 0.00 0.00 72 1014.6
20260507031756 3 228 0.0 1.6 0.00 0.00 0.00 72 1014.7
20260507031702 3 228 0.0 1.6 0.00 0.00 0.00 72 1014.7
20260507031641 3 228 0.0 1.6 0.00 0.00 0.00 71 1014.7
20260507031555 3 228 0.0 1.6 0.00 0.00 0.00 71 1014.7
20260507031513 3 228 0.0 1.6 0.00 0.00 0.00 71 1014.7
20260507031102 3 228 0.0 1.6 0.00 0.00 0.00 71 1014.7
20260507030905 3 228 0.0 0.0 0.00 0.00 0.00 71 1014.8
20260507030758 3 228 0.0 0.0 0.00 0.00 0.00 71 1014.8
20260507030700 3 228 0.0 0.0 0.00 0.00 0.00 71 1014.8
20260507030550 3 228 0.0 0.0 0.00 0.00 0.00 71 1014.8
20260507030541 3 228 0.0 0.0 0.00 0.00 0.00 71 1014.8
20260507030512 3 228 0.0 0.0 0.00 0.00 0.00 71 1014.8
20260507030056 3 228 0.0 0.0 0.00 0.00 0.00 70 1014.8
20260507025858 3 228 0.0 0.0 0.00 0.00 0.00 70 1014.8
20260507025806 3 228 0.0 0.0 0.00 0.00 0.00 70 1014.8
20260507025755 3 228 0.0 0.0 0.00 0.00 0.00 70 1014.7
20260507025557 4 228 0.0 0.0 0.00 0.00 0.00 70 1014.8
20260507025541 3 228 0.0 0.0 0.00 0.00 0.00 70 1015.0
20260507025506 4 228 0.0 0.0 0.00 0.00 0.00 70 1014.8
20260507025053 3 228 0.0 0.0 0.00 0.00 0.00 70 1014.7
20260507024851 3 228 0.0 0.0 0.00 0.00 0.00 69 1014.8
20260507024753 4 228 0.0 0.0 0.00 0.00 0.00 69 1014.8
20260507024651 4 228 0.0 0.0 0.00 0.00 0.00 69 1014.7
20260507024556 4 228 0.0 0.0 0.00 0.00 0.00 69 1014.8
20260507024539 4 228 0.0 0.0 0.00 0.00 0.00 69 1014.7
20260507024249 4 228 0.0 0.0 0.00 0.00 0.00 69 1014.8
20260507024145 4 228 0.0 0.0 0.00 0.00 0.00 68 1014.8
20260507023850 4 228 0.0 0.0 0.00 0.00 0.00 69 1014.7
20260507023751 4 228 0.0 0.0 0.00 0.00 0.00 69 1014.7
20260507023648 4 228 0.0 0.0 0.00 0.00 0.00 68 1014.8
20260507023448 4 228 0.0 0.0 0.00 0.00 0.00 68 1014.7
20260507023253 4 228 0.0 0.0 0.00 0.00 0.00 68 1014.7
20260507023247 4 228 0.0 0.0 0.00 0.00 0.00 68 1014.8
20260507023049 4 228 0.0 0.0 0.00 0.00 0.00 67 1014.8
20260507023042 4 228 0.0 0.0 0.00 0.00 0.00 67 1014.8
20260507023016 4 228 0.0 0.0 0.00 0.00 0.00 67 1014.8
20260507022643 4 228 0.0 0.0 0.00 0.00 0.00 67 1014.7
20260507022443 4 228 0.0 0.0 0.00 0.00 0.00 67 1014.7
20260507022239 4 228 0.0 0.0 0.00 0.00 0.00 67 1014.7
20260507022145 4 228 0.0 0.0 0.00 0.00 0.00 67 1014.8
20260507022058 4 228 0.0 0.0 0.00 0.00 0.00 65 1014.8
20260507022013 4 228 0.0 0.0 0.00 0.00 0.00 66 1014.8
20260507021638 4 228 0.0 0.0 0.00 0.00 0.00 65 1015.0
20260507021438 4 228 0.0 0.0 0.00 0.00 0.00 65 1014.8
20260507021232 4 228 0.0 0.0 0.00 0.00 0.00 64 1014.8
20260507021046 5 228 0.0 0.0 0.00 0.00 0.00 63 1014.8
20260507021040 4 228 0.0 0.0 0.00 0.00 0.00 64 1014.8
20260507021002 5 228 0.0 0.0 0.00 0.00 0.00 63 1014.8
20260507020637 5 228 0.0 0.0 0.00 0.00 0.00 62 1014.8
20260507020535 5 228 0.0 0.0 0.00 0.00 0.00 62 1015.0
20260507020231 5 228 0.0 0.0 0.00 0.00 0.00 61 1014.7
20260507020035 5 228 0.0 0.0 0.00 0.00 0.00 62 1014.8
20260507015834 5 228 0.0 0.0 0.00 0.00 0.00 62 1014.8
20260507015729 5 228 0.0 0.0 0.00 0.00 0.00 61 1015.0
20260507015634 5 228 0.0 0.0 0.00 0.00 0.00 61 1014.8
20260507015435 5 228 0.0 0.0 0.00 0.00 0.00 61 1014.8
20260507015230 5 228 0.0 0.0 0.00 0.00 0.00 62 1014.8
20260507015033 5 228 0.0 0.0 0.00 0.00 0.00 62 1014.7
20260507014930 5 228 0.0 1.6 0.00 0.00 0.00 61 1014.7
20260507014730 5 228 0.0 1.6 0.00 0.00 0.00 61 1014.7
20260507014631 5 228 0.0 1.6 0.00 0.00 0.00 61 1014.7
20260507014431 5 228 0.0 1.6 0.00 0.00 0.00 61 1014.7
20260507014230 5 228 0.0 1.6 0.00 0.00 0.00 61 1014.7
20260507014030 5 228 0.0 1.6 0.00 0.00 0.00 61 1014.7
20260507013830 5 228 0.0 1.6 0.00 0.00 0.00 60 1014.8
20260507013733 5 228 0.0 0.0 0.00 0.00 0.00 59 1014.7
20260507013633 5 228 0.0 0.0 0.00 0.00 0.00 59 1014.7
20260507013434 5 228 0.0 0.0 0.00 0.00 0.00 58 1014.7
20260507013337 5 228 0.0 0.0 0.00 0.00 0.00 58 1014.7
20260507013234 5 228 0.0 0.0 0.00 0.00 0.00 58 1014.7
20260507013009 5 228 0.0 0.0 0.00 0.00 0.00 58 1014.8
20260507012807 5 228 0.0 0.0 0.00 0.00 0.00 58 1014.7
20260507012703 5 228 0.0 0.0 0.00 0.00 0.00 58 1014.8
20260507012607 5 228 0.0 0.0 0.00 0.00 0.00 58 1014.8
20260507012407 5 228 0.0 0.0 0.00 0.00 0.00 61 1014.8
20260507012201 5 228 0.0 0.0 0.00 0.00 0.00 58 1014.7
20260507012005 6 228 0.0 1.6 0.00 0.00 0.00 58 1014.8
20260507011814 6 228 0.0 1.6 0.00 0.00 0.00 58 1014.8
20260507011716 6 228 0.0 1.6 0.00 0.00 0.00 59 1014.8
20260507011705 6 228 0.0 1.6 0.00 0.00 0.00 59 1015.0
20260507011453 6 228 0.0 1.6 0.00 0.00 0.00 56 1014.8
20260507011206 6 228 0.0 1.6 0.00 0.00 0.00 56 1015.0
20260507011003 6 228 0.0 3.2 0.00 0.00 0.00 56 1014.8
20260507010931 6 228 0.0 3.2 0.00 0.00 0.00 56 1014.8
20260507010559 6 228 0.0 6.4 0.00 0.00 0.00 56 1014.8
20260507010402 6 228 0.0 6.4 0.00 0.00 0.00 55 1014.8
20260507010202 6 228 0.0 6.4 0.00 0.00 0.00 55 1014.8
20260507010157 6 228 0.0 6.4 0.00 0.00 0.00 55 1014.8
20260507005959 6 237 0.0 3.2 0.00 0.00 0.00 55 1014.8
20260507005954 6 227 0.0 6.4 0.00 0.00 0.00 55 1014.8
20260507005930 6 227 0.0 6.4 0.00 0.00 0.00 55 1014.8
20260507005537 6 237 0.0 3.2 0.00 0.00 0.00 55 1014.8
20260507005334 6 237 0.0 4.8 0.00 0.00 0.00 54 1014.8
20260507005239 7 237 0.0 4.8 0.00 0.00 0.00 54 1014.8
20260507005201 7 237 0.0 4.8 0.00 0.00 0.00 54 1014.8
20260507005003 7 237 0.0 9.7 0.00 0.00 0.00 54 1014.8
20260507004953 7 237 0.0 6.4 0.00 0.00 0.00 54 1015.0
20260507004930 7 237 0.0 9.7 0.00 0.00 0.00 54 1014.8
20260507004508 7 237 0.0 9.7 0.00 0.00 0.00 54 1015.0
20260507004307 7 250 0.0 9.7 0.00 0.00 0.00 54 1015.0
20260507004149 7 250 0.0 9.7 0.00 0.00 0.00 54 1015.0
20260507004052 7 250 0.0 9.7 0.00 0.00 0.00 53 1015.0
20260507003850 7 248 0.0 9.7 0.00 0.00 0.00 53 1015.1
20260507003650 7 172 0.0 6.4 0.00 0.00 0.00 53 1014.8
20260507003547 7 224 0.0 4.8 0.00 0.00 0.00 53 1014.8
20260507003249 7 219 0.0 9.7 0.00 0.00 0.00 53 1015.0
20260507003149 7 214 0.0 9.7 0.00 0.00 0.00 54 1014.8
20260507003049 7 214 0.0 9.7 0.00 0.00 0.00 53 1014.7
20260507002850 7 214 0.0 9.7 0.00 0.00 0.00 53 1014.8
20260507002649 7 264 0.0 9.7 0.00 0.00 0.00 53 1014.8
20260507002452 7 264 0.0 11.3 0.00 0.00 0.00 53 1015.0
20260507002250 7 258 0.0 11.3 0.00 0.00 0.00 52 1015.0
20260507002150 7 258 0.0 11.3 0.00 0.00 0.00 52 1015.1
20260507002050 7 204 0.0 11.3 0.00 0.00 0.00 52 1015.1
20260507001852 7 245 0.0 11.3 0.00 0.00 0.00 54 1015.1
20260507001801 7 248 0.0 11.3 0.00 0.00 0.00 53 1015.1
20260507001651 7 248 0.0 11.3 0.00 0.00 0.00 53 1015.1
20260507001452 7 250 0.0 9.7 0.00 0.00 0.00 53 1015.1
20260507001250 7 238 0.0 9.7 0.00 0.00 0.00 54 1015.1
20260507001149 7 254 0.0 9.7 0.00 0.00 0.00 54 1015.1
20260507001050 7 252 0.0 9.7 0.00 0.00 0.00 53 1015.2
20260507000851 7 254 0.0 11.3 0.00 0.00 0.00 52 1015.0
20260507000650 7 258 0.0 11.3 0.00 0.00 0.00 52 1015.0
20260507000450 7 251 0.0 14.5 0.00 0.00 0.00 52 1015.2
20260507000250 7 240 0.0 14.5 0.00 0.00 0.00 53 1015.2
20260507000205 7 235 0.0 14.5 0.00 0.00 0.00 54 1015.2
20260507000153 7 230 0.0 14.5 0.00 0.00 0.00 54 1015.2
20260506235852 7 237 0.0 14.5 0.00 0.00 0.00 54 1015.1
20260506235651 7 275 0.0 14.5 0.00 0.00 0.00 53 1015.1
20260506235450 7 241 0.0 9.7 0.00 0.00 0.00 54 1015.2
20260506235250 7 241 0.0 9.7 0.00 0.00 0.00 55 1015.1
20260506235149 7 237 0.0 17.7 0.00 0.00 0.00 54 1015.1
20260506235050 7 237 0.0 17.7 0.00 0.00 0.00 54 1015.2
20260506234851 7 240 0.0 17.7 0.00 0.00 0.00 54 1015.2
20260506234650 7 217 0.0 17.7 0.00 0.00 0.00 54 1015.2
20260506234553 7 231 0.0 17.7 0.00 0.00 0.00 54 1015.2
20260506234439 7 221 0.0 9.7 0.00 0.00 0.00 53 1015.2
20260506234412 7 217 0.0 17.7 0.00 0.00 0.00 54 1015.2
20260506234137 7 226 0.0 9.7 0.00 0.00 0.00 53 1015.2
20260506233837 7 243 0.0 6.4 0.00 0.00 0.00 54 1015.2
20260506233644 7 134 0.0 6.4 0.00 0.00 0.00 54 1015.3
20260506233451 7 216 0.0 9.7 0.00 0.00 0.00 54 1015.2
20260506233445 7 131 0.0 9.7 0.00 0.00 0.00 54 1015.2
20260506233416 7 216 0.0 9.7 0.00 0.00 0.00 54 1015.2
20260506233035 7 216 0.0 9.7 0.00 0.00 0.00 53 1015.3
20260506232837 7 216 0.0 9.7 0.00 0.00 0.00 53 1015.3
20260506232647 7 233 0.0 9.7 0.00 0.00 0.00 53 1015.3
20260506232637 7 227 0.0 9.7 0.00 0.00 0.00 53 1015.2
20260506232542 7 285 0.0 8.0 0.00 0.00 0.00 52 1015.3
20260506232444 7 250 0.0 9.7 0.00 0.00 0.00 52 1015.3
20260506232411 7 252 0.0 9.7 0.00 0.00 0.00 52 1015.3
20260506232034 8 219 0.0 9.7 0.00 0.00 0.00 52 1015.4
20260506231810 8 219 0.0 9.7 0.00 0.00 0.00 52 1015.3
20260506231649 8 228 0.0 9.7 0.00 0.00 0.00 53 1015.2
20260506231606 8 178 0.0 9.7 0.00 0.00 0.00 53 1015.3
20260506231401 8 102 0.0 11.3 0.00 0.00 0.00 53 1015.3
20260506231159 8 257 0.0 14.5 0.00 0.00 0.00 53 1015.2
20260506231147 8 257 0.0 14.5 0.00 0.00 0.00 53 1015.3
20260506231000 8 283 0.0 14.5 0.00 0.00 0.00 53 1015.2
20260506230855 7 250 0.0 14.5 0.00 0.00 0.00 53 1015.3
20260506230650 7 250 0.0 14.5 0.00 0.00 0.00 53 1015.2
20260506230552 7 233 0.0 14.5 0.00 0.00 0.00 53 1015.3
20260506230350 7 216 0.0 14.5 0.00 0.00 0.00 54 1015.3
20260506230151 7 231 0.0 9.7 0.00 0.00 0.00 54 1015.3
20260506230054 7 231 0.0 9.7 0.00 0.00 0.00 54 1015.3
20260506225734 7 271 0.0 9.7 0.00 0.00 0.00 53 1015.2
20260506225650 8 271 0.0 9.7 0.00 0.00 0.00 53 1015.2
20260506225532 8 272 0.0 9.7 0.00 0.00 0.00 52 1015.3
20260506225333 8 247 0.0 6.4 0.00 0.00 0.00 54 1015.3
20260506225151 8 250 0.0 6.4 0.00 0.00 0.00 54 1015.3
20260506225132 8 250 0.0 8.0 0.00 0.00 0.00 54 1015.3
20260506224913 8 248 0.0 8.0 0.00 0.00 0.00 52 1015.3
20260506224712 8 234 0.0 8.0 0.00 0.00 0.00 52 1015.3
20260506224647 8 240 0.0 8.0 0.00 0.00 0.00 53 1015.3
20260506224518 8 251 0.0 8.0 0.00 0.00 0.00 52 1015.3
20260506224410 8 231 0.0 8.0 0.00 0.00 0.00 52 1015.2
20260506224146 8 262 0.0 8.0 0.00 0.00 0.00 53 1015.2
20260506224107 8 250 0.0 6.4 0.00 0.00 0.00 52 1015.2
20260506223909 8 220 0.0 4.8 0.00 0.00 0.00 53 1015.3
20260506223707 8 220 0.0 4.8 0.00 0.00 0.00 53 1015.3
20260506223649 8 220 0.0 4.8 0.00 0.00 0.00 53 1015.3
20260506223456 8 217 0.0 4.8 0.00 0.00 0.00 53 1015.3
20260506223254 8 245 0.0 4.8 0.00 0.00 0.00 53 1015.3
20260506223150 8 259 0.0 3.2 0.00 0.00 0.00 54 1015.4
20260506223051 8 259 0.0 3.2 0.00 0.00 0.00 53 1015.3
20260506222940 8 228 0.0 8.0 0.00 0.00 0.00 52 1015.2
20260506222930 8 228 0.0 1.6 0.00 0.00 0.00 52 1015.2
20260506222437 8 228 0.0 8.0 0.00 0.00 0.00 52 1015.2
20260506222238 8 228 0.0 8.0 0.00 0.00 0.00 52 1015.3
20260506222136 8 228 0.0 8.0 0.00 0.00 0.00 52 1015.2
20260506222040 8 228 0.0 8.0 0.00 0.00 0.00 52 1015.3
20260506221839 8 228 0.0 8.0 0.00 0.00 0.00 52 1015.3
20260506221637 8 231 0.0 4.8 0.00 0.00 0.00 53 1015.4
20260506221437 8 231 0.0 8.0 0.00 0.00 0.00 54 1015.3
20260506221239 8 231 0.0 8.0 0.00 0.00 0.00 52 1015.4
20260506221136 8 231 0.0 8.0 0.00 0.00 0.00 52 1015.4
20260506221037 8 226 0.0 8.0 0.00 0.00 0.00 51 1015.4
20260506220938 8 128 0.0 8.0 0.00 0.00 0.00 55 1015.4
20260506220637 8 128 0.0 8.0 0.00 0.00 0.00 53 1015.4
20260506220437 8 7 0.0 4.8 0.00 0.00 0.00 54 1015.4
20260506220239 8 240 0.0 4.8 0.00 0.00 0.00 54 1015.4
20260506220136 8 240 0.0 6.4 0.00 0.00 0.00 53 1015.4
20260506220038 7 68 0.0 6.4 0.00 0.00 0.00 54 1015.5
20260506215834 7 68 0.0 8.0 0.00 0.00 0.00 54 1015.4
20260506215638 8 189 0.0 17.7 0.00 0.00 0.00 54 1015.4
20260506215624 7 252 0.0 17.7 0.00 0.00 0.00 54 1015.4
20260506215414 7 212 0.0 17.7 0.00 0.00 0.00 55 1015.5
20260506215312 7 247 0.0 17.7 0.00 0.00 0.00 54 1015.6
20260506215136 7 227 0.0 17.7 0.00 0.00 0.00 54 1015.6
20260506215010 7 240 0.0 17.7 0.00 0.00 0.00 54 1015.5
20260506214808 7 238 0.0 17.7 0.00 0.00 0.00 53 1015.6
20260506214636 7 212 0.0 16.1 0.00 0.00 0.00 53 1015.5
20260506214608 7 231 0.0 16.1 0.00 0.00 0.00 53 1015.6
20260506214408 8 243 0.0 9.7 0.00 0.00 0.00 54 1015.6
20260506214207 7 259 0.0 9.7 0.00 0.00 0.00 55 1015.6
20260506214135 7 240 0.0 9.7 0.00 0.00 0.00 55 1015.6
20260506214008 7 255 0.0 9.7 0.00 0.00 0.00 52 1015.6
20260506213803 8 234 0.0 4.8 0.00 0.00 0.00 54 1015.7
20260506213634 -17 0.0 0.0 0.00 0.00 0.00 1015.6
20260506213604 7 221 0.0 8.0 0.00 0.00 0.00 53 1015.6
20260506213404 7 221 0.0 8.0 0.00 0.00 0.00 53 1015.6
20260506213205 7 221 0.0 8.0 0.00 0.00 0.00 53 1015.8
20260506213130 7 221 0.0 8.0 0.00 0.00 0.00 53 1015.8
20260506212933 7 221 0.0 8.0 0.00 0.00 0.00 53 1015.7
20260506212732 7 221 0.0 8.0 0.00 0.00 0.00 53 1015.8
20260506212639 7 268 0.0 8.0 0.00 0.00 0.00 53 1015.7
20260506212629 7 221 0.0 8.0 0.00 0.00 0.00 53 1015.7
20260506212516 7 312 0.0 8.0 0.00 0.00 0.00 54 1015.7
20260506212125 7 203 0.0 11.3 0.00 0.00 0.00 55 1015.8
20260506211923 7 220 0.0 11.3 0.00 0.00 0.00 56 1015.8
20260506211723 7 217 0.0 11.3 0.00 0.00 0.00 56 1015.8
20260506211627 7 217 0.0 11.3 0.00 0.00 0.00 56 1015.7
20260506211522 7 213 0.0 11.3 0.00 0.00 0.00 56 1015.8
20260506211317 7 268 0.0 19.3 0.00 0.00 0.00 55 1015.9
20260506211211 7 254 0.0 19.3 0.00 0.00 0.00 55 1015.8
20260506211125 7 252 0.0 19.3 0.00 0.00 0.00 56 1015.8
20260506210927 7 228 0.0 19.3 0.00 0.00 0.00 56 1015.8
20260506210919 7 244 0.0 19.3 0.00 0.00 0.00 55 1015.8
20260506210848 7 228 0.0 19.3 0.00 0.00 0.00 57 1015.8
20260506210505 7 235 0.0 19.3 0.00 0.00 0.00 56 1015.9
20260506210306 7 233 0.0 16.1 0.00 0.00 0.00 57 1015.9
20260506210124 7 259 0.0 14.5 0.00 0.00 0.00 55 1015.9
20260506210104 7 224 0.0 14.5 0.00 0.00 0.00 56 1015.9
20260506205905 7 258 0.0 14.5 0.00 0.00 0.00 58 1015.9
20260506205704 7 258 0.0 14.5 0.00 0.00 0.00 58 1015.9
20260506205623 7 258 0.0 14.5 0.00 0.00 0.00 58 1015.9
20260506205504 7 264 0.0 14.5 0.00 0.00 0.00 58 1016.1
20260506205309 7 243 0.0 14.5 0.00 0.00 0.00 57 1016.0
20260506205117 7 240 0.0 9.7 0.00 0.00 0.00 56 1016.1
20260506205107 7 240 0.0 11.3 0.00 0.00 0.00 56 1016.1
20260506204838 7 240 0.0 11.3 0.00 0.00 0.00 56 1016.1
20260506204639 7 279 0.0 11.3 0.00 0.00 0.00 55 1016.1
20260506204604 7 127 0.0 11.3 0.00 0.00 0.00 59 1016.2
20260506204437 7 248 0.0 11.3 0.00 0.00 0.00 57 1016.1
20260506204337 7 233 0.0 11.3 0.00 0.00 0.00 56 1016.0
20260506204103 7 214 0.0 9.7 0.00 0.00 0.00 57 1016.1
20260506204041 7 265 0.0 9.7 0.00 0.00 0.00 56 1016.1
20260506203834 7 227 0.0 9.7 0.00 0.00 0.00 59 1016.1
20260506203635 7 223 0.0 9.7 0.00 0.00 0.00 59 1016.1
20260506203603 7 223 0.0 9.7 0.00 0.00 0.00 59 1016.1
20260506203436 7 223 0.0 11.3 0.00 0.00 0.00 59 1016.1